ARIANE 2 DEB, 33560

Orbit data source: Space-Track

ARIANE 2 DEB, 33560 is space debris in HEO originally from a launch on Fri, 27 Jan 1989 UTC launched from the French Guiana (FRGUI). Debris objects in space refer to the collection of defunct objects orbiting the Earth. Examples of debris include non-operational satellites, rocket bodies, and fragments generated from explosions, collisions, or faulty payload assembly.

Loading next visibility...
Identifier
33560, 1989-006BC
Orbit
HEO
Country
Flag of FRFR
Related business
Manufacturer
EADS/LV
Mission
Spacecraft
Bus & Motor
Unknown
Mass
Unknown
Launch date (UTC)
1989-01-27 (37 years ago)
Launch vehicle
Unknown
Launch site
French Guiana (FRGUI)
Object type
Payload
Rocket body
Debris
Shape & HBR
Unknown shape, 0.2 m
Radar Cross Section
Medium (>0.1 m² and <1 m²)

Expand to show TLE details & history
Last TLE update: 2 days ago

TLE from 2 days ago
0 ARIANE 2 DEB
1 33560U 89006BC  26094.25120437  .00000134  00000-0  12793-1 0  9996
2 33560  10.9188  50.0770 7063810  84.2768 356.6793  2.25174515179193
Epoch: 2026-04-04T06:01Z
TLE epoch observation values (Epoch: 2026-04-04T06:01:44.057Z)
Latitude
9.16741°
Longitude
-176.6221°
Altitude
1,212.088 km
Speed
9.424 km/s
True Right ascension
07h 05m 32s
True Declination
9° 07' 00"
Sunlit
Object was in daylight at epoch
Visualization orbit readout
Latitude
Unknown
Longitude
Unknown
Altitude
Unknown
Speed
Unknown
Apparent Right ascension
Unknown
Apparent Declination
Unknown
Sunlit
N/A
Visualization observer readout
Local Sidereal Time
02:50:23
Azimuth
Unknown
Elevation
Unknown
Doppler factor
Unknown
Orbital elements
Apogee altitude
35,586.458 km
Perigee altitude
842.761 km
Semi-major axis
24,592.746 km
Eccentricity
0.70638
Inclination
10.9188°
RAAN
50.077°
Arg. of periapsis
84.2768°
True anomaly
333.53797°
Mean anomaly
356.6793°
Eccentric anomaly
348.85903°
Mean motion
0.56277 °/min
Orbital period
639.69 mins
BSTAR
0.012793
Loading maneuver chart data...
Computing Atmospheric mass density...
Loading historical data...
Loading historical data...
Loading historical data...
Loading historical data...
Loading historical data...
Loading historical data...
Loading historical data...

Documentation

Showing up to 5 results
|